Location: Peebles
(55.6412°N, 3.1714°W)
Time: 06:32:55
(UTC+01:00)

deb NNS O-4 - Pass Details

Date: 01 July 2022
Orbit: 977 x 1074 km, 89.9° (Epoch: 16 August)

Event Time Altitude Azimuth Distance (km) Brightness Sun altitude
Exits shadow 02:28:06 - 168° (SSE) 3,123 ? -9.8°
Reaches altitude 10° 02:28:42 10° 168° (SSE) 2,906 ? -9.8°
Maximum altitude 02:35:21 75° 85° (E) 1,111 ? -9.5°
Drops below altitude 10° 02:41:58 10° 1° (N) 2,891 ? -9.2°
Sets 02:44:31 0° 0° (N) 3,837 ? -9.0°
